Location: Łódź
(51.7951°N, 19.4477°E)
Time: 04:42:05
(UTC+01:00)

ISS - Visible Passes

Search period start: 24 November 2017 00:00
Search period end: 04 December 2017 00:00
Orbit: 402 x 407 km, 51.6° (Epoch: 24 November)

Date Brightness Start Highest point End Pass type
(mag) Time Alt. Az. Time Alt. Az. Time Alt. Az.
28 Nov -1.1 18:17:13 10° SSW 18:17:50 14° SSW 18:17:50 14° SSW visible
29 Nov -1.8 17:25:39 10° S 17:27:46 16° SE 17:27:46 16° SE visible
30 Nov -1.3 16:35:11 10° SE 16:35:39 10° SE 16:36:08 10° SE visible
30 Nov -2.1 18:08:21 10° SW 18:10:15 28° SSW 18:10:15 28° SSW visible
01 Dec -2.5 17:16:20 10° SSW 17:19:11 28° SSE 17:20:01 24° ESE visible
01 Dec -0.6 18:52:07 10° WSW 18:52:40 14° WSW 18:52:40 14° WSW visible
02 Dec -1.8 16:24:35 10° S 16:26:58 19° SE 16:29:22 10° E visible
02 Dec -3.1 17:59:46 10° WSW 18:02:23 48° SSW 18:02:23 48° SSW visible
03 Dec -3.2 17:07:31 10° SW 17:10:39 45° SSE 17:12:04 27° E visible
03 Dec -0.9 18:43:43 10° W 18:44:42 18° W 18:44:42 18° W visible
